[[{"header":{"parameterUnit":"m.s-1","parameterCategory":1,"la1":30.2991,"la2":30.254,"lo1":-89.0895,"lo2":-89.0444,"dy":0.0017,"dx":0.0017,"nx":28,"ny":28,"refTime":"2025-09-14T03:00:00:Z","depth":0,"parameterNumber":2,"parameterNumberName":"U-component_of_WINDS"},"data":[0,0,0,0,0,0,0,0,0,0,0,0,0,0,0,0,0,0,0,0,0,0,0,0,0,0,0,0,0,0,0,0,0,0,0,0,0,0,0,0,0,0,0,0,0,0,0,0,0,0,0,0,0,0,0,0,0,0,0.4587,0.4587,0,0.4535,0.4535,0.4534,0.45,0.45,0.45,0.45,0.4446,0.4444,0.4443,0,0,0,0,0,0,0,0,0,0,0,0,0,0.4655,0.4654,0.4587,0.4587,0.4586,0.4536,0.4535,0.4534,0.45,0.45,0.45,0.45,0.4446,0.4444,0.4443,0,0,0,0,0,0,0,0,0,0,0,0,0,0.4616,0.4653,0.4587,0.4563,0.456,0.4536,0.4535,0.4534,0.45,0.45,0.45,0.4499,0.4446,0.4445,0.4443,0.4438,0,0,0.4437,0.4436,0,0,0,0,0,0,0,0,0.4619,0.4614,0.4567,0.4565,0.4562,0.4524,0.4539,0.4502,0.45,0.4523,0.45,0.4499,0.4472,0.4468,0.4459,0.4435,0.4433,0.4437,0.4436,0.4435,0.4435,0,0,0,0,0,0,0,0.4621,0.4616,0.4567,0.4567,0.4563,0.4554,0.4548,0.4531,0.45,0.4521,0.4519,0.4513,0.447,0.4461,0.4457,0.4432,0.4437,0.4435,0.4434,0.4433,0.4399,0.4399,0,0,0,0,0,0,0.4628,0.4618,0.4568,0.4565,0.459,0.4553,0.4546,0.4536,0.45,0.4494,0.4513,0.4512,0.4464,0.446,0.4455,0.4445,0.4435,0.4433,0.4432,0.4399,0.4399,0.4399,0,0,0,0,0,0,0.463,0.4624,0.457,0.4591,0.4584,0.4552,0.4541,0.4536,0.4526,0.4494,0.4488,0.4509,0.4464,0.4458,0.4442,0.4443,0.4432,0.4431,0.4398,0.4399,0.4399,0.4426,0,0,0,0,0,0,0.4632,0.4625,0.4623,0.4591,0.4583,0.4559,0.4541,0.4535,0.4523,0.452,0.4489,0.4483,0.4463,0.4445,0.444,0.444,0.4429,0.4398,0.4399,0.4399,0.4425,0.4428,0.443,0,0,0,0,0,0.4634,0.4633,0.4623,0.4618,0.458,0.4559,0.4554,0.4531,0.4523,0.4521,0.45,0.4484,0.4444,0.4443,0.4438,0.4437,0.4398,0.4398,0.4399,0.4424,0.4427,0.443,0,0,0,0,0,0,0.4667,0.4629,0.4617,0.4606,0.4586,0.4553,0.455,0.4535,0.4516,0.4514,0.4486,0.4479,0.4465,0.445,0.445,0.4429,0.4419,0.4418,0.444,0.4443,0.4445,0.4449,0.4428,0,0,0,0,0,0.4672,0.4659,0.4627,0.462,0.461,0.4582,0.4572,0.4555,0.4533,0.4524,0.4502,0.4481,0.4463,0.4452,0.4434,0.4423,0.4414,0.4419,0.4422,0.4424,0.4423,0.4414,0.4415,0.4401,0.4401,0.4401,0,0,0.4684,0.4662,0.4656,0.4626,0.4608,0.4594,0.4575,0.4561,0.455,0.4522,0.4505,0.4488,0.4462,0.4448,0.4441,0.4435,0.4425,0.4424,0.4426,0.4424,0.4414,0.4416,0.4417,0.4401,0.4401,0.4401,0,0,0.4699,0.4681,0.4673,0.4655,0.4629,0.4609,0.4607,0.4576,0.4564,0.4546,0.4525,0.451,0.4481,0.4462,0.4449,0.4454,0.4438,0.4449,0.446,0.4451,0.4452,0.4453,0.4453,0.4454,0.4448,0.4448,0.4449,0,0.4717,0.4695,0.467,0.4657,0.4644,0.4618,0.4608,0.4592,0.4561,0.4552,0.4545,0.4506,0.4487,0.4467,0.4468,0.4458,0.4454,0.4452,0.4454,0.4455,0.4455,0.4455,0.4455,0.445,0.445,0.445,0.4449,0,0.4718,0.4703,0.4699,0.4669,0.4656,0.4644,0.4617,0.4605,0.459,0.4571,0.4552,0.4527,0.4503,0.4497,0.4482,0.4474,0.4471,0.446,0.4449,0.4458,0.4458,0.4458,0.4452,0.4451,0.4451,0.4451,0,0,0.4752,0.4708,0.4706,0.4692,0.4659,0.4647,0.4633,0.4609,0.4599,0.4578,0.4565,0.4539,0.4528,0.4513,0.4495,0.4488,0.4491,0.4477,0.4476,0.4479,0.4478,0.4487,0.4487,0.448,0.448,0.448,0.448,0,0.4761,0.4736,0.4712,0.4696,0.468,0.4654,0.4642,0.462,0.4602,0.4585,0.4564,0.4546,0.4533,0.4524,0.4515,0.4492,0.449,0.4492,0.4466,0.4466,0.4473,0.4487,0.4496,0.4498,0.448,0.448,0.448,0,0.4768,0.4747,0.4729,0.4697,0.4689,0.4679,0.4654,0.4639,0.4613,0.4599,0.4582,0.4562,0.4545,0.4536,0.4511,0.4512,0.45,0.4487,0.4487,0.4483,0.4473,0.4483,0.4498,0.4498,0.4479,0.4479,0.448,0,0.4793,0.4761,0.4745,0.4734,0.4696,0.4689,0.4672,0.4646,0.4632,0.461,0.46,0.4576,0.4563,0.4544,0.4518,0.4514,0.4495,0.4484,0.4482,0.4483,0.4479,0.448,0.4492,0.4473,0.4473,0.4473,0.4473,0,0.4805,0.4794,0.4756,0.4746,0.4733,0.4705,0.4692,0.4673,0.465,0.4635,0.4611,0.4597,0.4564,0.4546,0.4525,0.4506,0.4501,0.4489,0.4483,0.4491,0.4492,0.4482,0.4481,0.4473,0.4473,0.4473,0.4473,0,0.483,0.4805,0.4786,0.4751,0.4741,0.4733,0.4703,0.4691,0.4671,0.4652,0.4646,0.4613,0.4591,0.4563,0.4531,0.4517,0.45,0.4492,0.4509,0.4506,0.4505,0.4505,0.4511,0.4509,0.4492,0.4492,0.4493,0,0.4839,0.4831,0.4794,0.4783,0.4767,0.4749,0.4735,0.4706,0.4692,0.466,0.4652,0.4628,0.4607,0.4571,0.4544,0.4519,0.451,0.4513,0.4506,0.4513,0.4508,0.4509,0.4507,0.4515,0.4516,0.4516,0.4516,0,0.4857,0.4844,0.4825,0.4801,0.4784,0.4764,0.4742,0.4734,0.47,0.4685,0.4661,0.4645,0.4612,0.4587,0.4558,0.454,0.4522,0.4518,0.4517,0.4524,0.4533,0.4527,0.4513,0.4519,0.4518,0.4518,0.4518,0.4518,0.4874,0.4864,0.4837,0.4815,0.4796,0.4776,0.4763,0.474,0.4721,0.4692,0.4676,0.4652,0.4624,0.4583,0.4565,0.4545,0.4539,0.4537,0.4536,0.4536,0.4537,0.4537,0.454,0.454,0.454,0.454,0.454,0,0.4889,0.487,0.4851,0.4821,0.4804,0.4789,0.4763,0.4749,0.4729,0.4705,0.4684,0.4656,0.4631,0.4601,0.4574,0.4564,0.4554,0.4557,0.4558,0.4553,0.4545,0.4549,0.4565,0.4565,0.4565,0.4565,0.4565,0.4565,0.4895,0.4878,0.4861,0.4833,0.4813,0.4791,0.4777,0.4758,0.4738,0.4708,0.4687,0.4668,0.464,0.4611,0.4587,0.4578,0.4569,0.4574,0.4563,0.4556,0.4554,0.4552,0.4555,0.4573,0.4573,0.4573,0.4573,0.4573]},{"header":{"parameterUnit":"m.s-1","parameterCategory":1,"la1":30.2991,"la2":30.254,"lo1":-89.0895,"lo2":-89.0444,"dy":0.0017,"dx":0.0017,"nx":28,"ny":28,"refTime":"2025-09-14T03:00:00:Z","depth":0,"parameterNumber":3,"parameterNumberName":"V-component_of_WINDS"},"data":[0,0,0,0,0,0,0,0,0,0,0,0,0,0,0,0,0,0,0,0,0,0,0,0,0,0,0,0,0,0,0,0,0,0,0,0,0,0,0,0,0,0,0,0,0,0,0,0,0,0,0,0,0,0,0,0,0,0,1.4043,1.4042,0,1.3973,1.3973,1.3972,1.3917,1.3916,1.3916,1.3915,1.3843,1.3841,1.384,0,0,0,0,0,0,0,0,0,0,0,0,0,1.4124,1.4123,1.4043,1.4042,1.4041,1.3974,1.3973,1.3972,1.3917,1.3916,1.3916,1.3915,1.3843,1.3841,1.384,0,0,0,0,0,0,0,0,0,0,0,0,0,1.4075,1.4123,1.4043,1.4006,1.4001,1.3974,1.3973,1.3971,1.3917,1.3916,1.3915,1.3915,1.3844,1.3842,1.384,1.3843,0,0,1.3833,1.3832,0,0,0,0,0,0,0,0,1.4078,1.4072,1.4012,1.4008,1.4003,1.3953,1.3975,1.3928,1.3917,1.3949,1.3915,1.3914,1.388,1.3875,1.3864,1.3839,1.3836,1.3833,1.3832,1.3831,1.383,0,0,0,0,0,0,0,1.4082,1.4075,1.4015,1.4011,1.4006,1.3991,1.3983,1.3966,1.392,1.3946,1.3942,1.3935,1.3877,1.3866,1.3861,1.3835,1.3833,1.3831,1.383,1.3829,1.3808,1.3808,0,0,0,0,0,0,1.4091,1.4078,1.4017,1.4013,1.404,1.399,1.3982,1.397,1.392,1.3912,1.3936,1.3932,1.387,1.3864,1.3859,1.3858,1.3831,1.3829,1.3827,1.3807,1.3808,1.3809,0,0,0,0,0,0,1.4093,1.4086,1.402,1.4044,1.4035,1.399,1.3977,1.3969,1.3957,1.3912,1.3903,1.3932,1.3869,1.3862,1.3847,1.3854,1.3828,1.3826,1.3806,1.3807,1.3808,1.3857,0,0,0,0,0,0,1.4096,1.4087,1.4089,1.4045,1.4034,1.4011,1.3978,1.3968,1.3954,1.3949,1.3906,1.3898,1.3868,1.385,1.3845,1.3851,1.3824,1.3805,1.3807,1.3808,1.3854,1.3859,1.3864,0,0,0,0,0,1.4099,1.4105,1.4089,1.4082,1.4035,1.4011,1.4005,1.397,1.3955,1.3955,1.3926,1.39,1.3855,1.3849,1.3842,1.3848,1.3804,1.3806,1.3808,1.3852,1.3858,1.3864,0,0,0,0,0,0,1.4151,1.4099,1.4081,1.4073,1.4047,1.4002,1.4002,1.3978,1.3955,1.3951,1.3908,1.3899,1.3888,1.3867,1.3861,1.3847,1.3826,1.3826,1.3862,1.3868,1.3872,1.3877,1.3822,0,0,0,0,0,1.4162,1.4148,1.4102,1.41,1.4088,1.4047,1.4036,1.4011,1.3982,1.397,1.394,1.3912,1.3891,1.3878,1.3857,1.3851,1.384,1.3851,1.3856,1.386,1.3861,1.3854,1.3858,1.3814,1.3814,1.3814,0,0,1.4184,1.4154,1.4147,1.411,1.4087,1.4072,1.4038,1.4024,1.4012,1.3968,1.3951,1.3928,1.3894,1.3883,1.3877,1.3865,1.3871,1.3862,1.3866,1.3864,1.3856,1.3861,1.3864,1.3815,1.3815,1.3815,0,0,1.4216,1.4192,1.4187,1.4164,1.413,1.4102,1.4101,1.4059,1.4042,1.4025,1.3991,1.3975,1.3941,1.3917,1.3901,1.3923,1.3897,1.3917,1.3941,1.3935,1.3939,1.3942,1.3948,1.3951,1.3918,1.3918,1.3918,0,1.4248,1.4225,1.4187,1.4175,1.4159,1.4118,1.4111,1.4091,1.4051,1.404,1.4027,1.3982,1.3956,1.3939,1.3944,1.3933,1.3929,1.3921,1.3942,1.3944,1.3946,1.3952,1.3954,1.392,1.392,1.392,1.3919,0,1.4264,1.4249,1.4248,1.4211,1.4194,1.4185,1.4146,1.4134,1.411,1.4083,1.4066,1.4033,1.4004,1.3998,1.3974,1.3976,1.3969,1.395,1.3927,1.3954,1.3958,1.396,1.3924,1.3923,1.3922,1.3922,0,0,1.4328,1.4269,1.427,1.4251,1.4209,1.4196,1.4184,1.4155,1.4145,1.4118,1.4106,1.4077,1.4058,1.404,1.4013,1.4008,1.4026,1.3989,1.3987,1.3996,1.4024,1.4038,1.4041,1.4009,1.4009,1.4009,1.4026,0,1.4353,1.433,1.4295,1.4283,1.4267,1.4227,1.4217,1.4189,1.4164,1.4145,1.4117,1.4097,1.4074,1.4062,1.4056,1.4025,1.403,1.4023,1.3996,1.3995,1.4005,1.4044,1.4059,1.4077,1.4028,1.4028,1.4028,0,1.4379,1.4354,1.434,1.4298,1.429,1.4281,1.4251,1.4235,1.4202,1.4184,1.4162,1.4133,1.4117,1.4097,1.4073,1.4069,1.4056,1.4039,1.4039,1.4034,1.4013,1.4039,1.4082,1.4084,1.4031,1.403,1.403,0,1.4425,1.4388,1.4375,1.4361,1.4311,1.4306,1.4285,1.4251,1.4236,1.4209,1.4198,1.417,1.4155,1.4133,1.4097,1.4086,1.4076,1.4054,1.4059,1.406,1.4059,1.4059,1.4099,1.4052,1.4052,1.4052,1.4052,0,1.4456,1.4448,1.4395,1.4387,1.4377,1.4337,1.4328,1.4303,1.4273,1.4259,1.4223,1.4209,1.4163,1.4143,1.4115,1.4098,1.4092,1.4076,1.4068,1.4078,1.408,1.4069,1.4066,1.4052,1.4052,1.4052,1.4052,0,1.4506,1.447,1.4452,1.4407,1.4395,1.439,1.435,1.434,1.4312,1.4294,1.4287,1.4243,1.4218,1.418,1.4144,1.4125,1.4113,1.4101,1.4124,1.4119,1.4127,1.4126,1.416,1.4161,1.4115,1.4115,1.4115,0,1.4527,1.4521,1.4474,1.4462,1.4442,1.4423,1.4407,1.4367,1.4351,1.4312,1.4306,1.4279,1.4255,1.4217,1.4181,1.4153,1.4139,1.4153,1.4135,1.4145,1.4138,1.4138,1.4137,1.4157,1.4158,1.4158,1.4159,0,1.4569,1.4551,1.4529,1.4501,1.4483,1.4458,1.4432,1.4424,1.4378,1.4362,1.4336,1.4318,1.4281,1.4253,1.422,1.4197,1.417,1.4165,1.4164,1.4175,1.4188,1.418,1.4135,1.4164,1.4164,1.4163,1.4163,1.4163,1.4604,1.4596,1.4562,1.4538,1.4514,1.449,1.4478,1.4449,1.4427,1.4394,1.4371,1.4347,1.4312,1.4264,1.4243,1.4222,1.421,1.421,1.421,1.421,1.4214,1.4192,1.4216,1.4216,1.4216,1.4215,1.4215,0,1.4643,1.4619,1.4598,1.4562,1.4543,1.452,1.4489,1.4475,1.4454,1.4424,1.4401,1.4371,1.4344,1.4306,1.4275,1.4266,1.4253,1.4259,1.4259,1.4254,1.4226,1.4229,1.4271,1.4271,1.4271,1.4271,1.4271,1.4271,1.4661,1.4645,1.4623,1.4595,1.457,1.4546,1.453,1.4508,1.4484,1.4452,1.4429,1.4405,1.4371,1.4338,1.4311,1.4301,1.4291,1.4301,1.4286,1.4261,1.4256,1.4251,1.4254,1.4299,1.43,1.4315,1.4316,1.4316]}]]